Location: Atlantic Beach
(40.5890°N, 73.7290°W)
Time: 04:05:14
(UTC+00:00)

MOS 1 Rocket - Pass Details

Date: 29 October 2020
Orbit: 615 x 829 km, 97.4° (Epoch: 23 November)

Event Time Altitude Azimuth Distance (km) Brightness Sun altitude
Rises 23:01:46 0° 23° (NNE) 3,076 6.3 -13.3°
Reaches altitude 10° 23:04:12 10° 33° (NNE) 2,190 5.5 -13.8°
Maximum altitude 23:08:29 31° 96° (E) 1,269 4.1 -14.6°
Drops below altitude 10° 23:12:58 10° 159° (SSE) 2,298 5.8 -15.4°
Sets 23:15:34 0° 169° (SSE) 3,253 6.7 -15.9°
